TIANQI-6

Last updated on Thu Nov 26 2020 00:02:02 GMT+0000 (Coordinated Universal Time)

1 46810U 20076D 20330.54277805 .00000358 00000-0 37819-4 0 9998 2 46810 35.0053 61.7498 0014070 212.2915 147.6949 14.91382141 4453
UTC large
Height (km)
Speed (km/s)
/
Latitude / Longitude
Inclination (degrees)
Orbital Period (minutes)
Azimuth
Elevation
Range (km)
Doppler Factor

Next 0 passes for location: London (51.5072 / 0.1276)

Sorry there are no passes over London.